sat.trackr.live / text

‹ back to catalog

STARLINK-34383

NORAD 64305 · 2025-123Q

PAYLOAD ACTIVE UNKNOWN

§ Identity

Operator
Country
US
Launch date
2025-06-08
Launch site
AFWTR
Launch vehicle
Mass (kg)
RCS (m²)

Purposes: comms

External: N2YO · Heavens-Above · Gunter

§ Orbital elements

Epoch: 2026-05-24T23:58:13.152576Z

Period
96.11 min
Inclination
70.0025°
Eccentricity
0.0002897
Mean motion
14.98334961 rev/d
Perigee alt
570.0 km
Apogee alt
574.1 km
Semi-major
6,950.2 km
B*
2.1016e-4
RAAN
2.2601°
Arg perigee
268.2166°
Mean anomaly
91.8662°
Rev number
5,304

§ Raw data

STARLINK-343831 64305U 25123Q   26144.99876334  .00002416  00000+0  21016-3 0  99922 64305  70.0025   2.2601 0002897 268.2166  91.8662 14.98334961 53044

JSON: /api/v1/satellites/64305 · /tle

For live sub-satellite position, see the globe view (requires WebGL).

§ Visibility from observer

Set your observer location to see the next 7 days of passes ≥ 10°. The values pass through the URL so the page stays shareable.

No JS? Fill the form by hand. The geolocation button needs JavaScript.